{"data":{"norad_id":46497,"intl_designator":"2020-068M","name":"ICEYE-X6","alt_names":[],"object_type":"PAYLOAD","status":"ACTIVE","operator":null,"country":"FIN","launch_date":"2020-09-28","launch_site_code":"PLMSC","launch_vehicle":null,"mission":null,"orbit_class":"UNKNOWN","rcs_meters":null,"size_class":null,"mass_kg":null,"dimensions":null,"purposes":[],"wikipedia_slug":null,"has_3d_model":false,"image_url":null,"decayed_at":null,"tle_current":{"epoch":"2026-05-25T05:53:07.848672Z","epoch_age_seconds":60660,"freshness":"FRESH","line1":"1 46497U 20068M   26145.24522973  .00002649  00000+0  19458-3 0  9998","line2":"2 46497  98.0979 137.8242 0007808 154.2990 205.8624 15.04381750309782","mean_motion":15.0438175,"eccentricity":0.0007808,"inclination_deg":98.0979,"raan_deg":137.8242,"arg_perigee_deg":154.299,"mean_anomaly_deg":205.8624,"bstar":0.00019458,"rev_number":30978,"period_min":95.720384802594,"perigee_km":547.99197062562,"apogee_km":558.81626523538,"semimajor_km":6931.5411179305,"source":"CELESTRAK","updated_at":"2026-05-25T13:37:56.325627Z"}}}